This is the latest recevied weather packets stored in our database for station/object AE0NK. If no packets are shown the sender has not sent any weather packets the latest 10 day(s).
| Time | Temp. | Humidity | Pressure | Rain* | Wind** | Luminosity | Snow |
|---|---|---|---|---|---|---|---|
| 1778015004 | 13.89° C | 38% | 1009.9 hPa | 0 mm | - | 160 W/m² | - |
| 1778014698 | 13.89° C | 37% | 1009.9 hPa | 0 mm | - | 195 W/m² | - |
| 1778014397 | 13.89° C | 39% | 1009.9 hPa | 0 mm | - | 193 W/m² | - |
| 1778014095 | 13.89° C | 39% | 1010 hPa | 0 mm | - | 193 W/m² | - |
| 1778013793 | 13.89° C | 41% | 1010.2 hPa | 0 mm | - | 211 W/m² | - |
| 1778013492 | 13.89° C | 38% | 1010 hPa | 0 mm | - | 241 W/m² | - |
| 1778013210 | 13.89° C | 38% | 1010.1 hPa | 0 mm | - | 272 W/m² | - |
| 1778012909 | 14.44° C | 39% | 1010.2 hPa | 0 mm | - | 272 W/m² | - |
| 1778012607 | 13.89° C | 40% | 1010.3 hPa | 0 mm | - | 473 W/m² | - |
| 1778012305 | 13.89° C | 38% | 1010.3 hPa | 0 mm | - | 332 W/m² | - |
| 1778012004 | 13.89° C | 37% | 1010.4 hPa | 0 mm | - | 316 W/m² | - |
| 1778011704 | 13.89° C | 38% | 1010.4 hPa | 0 mm | - | 489 W/m² | - |
| 1778011402 | 13.33° C | 38% | 1010.4 hPa | 0 mm | - | 383 W/m² | - |
| 1778011097 | 13.33° C | 38% | 1010.5 hPa | 0 mm | - | 376 W/m² | - |
| 1778010796 | 13.33° C | 39% | 1010.6 hPa | 0 mm | - | 264 W/m² | - |
| 1778010496 | 13.33° C | 38% | 1010.6 hPa | 0 mm | - | 223 W/m² | - |
| 1778010193 | 12.78° C | 38% | 1010.7 hPa | 0 mm | - | 390 W/m² | - |
| 1778009892 | 12.78° C | 38% | 1010.9 hPa | 0 mm | - | 283 W/m² | - |
| 1778009610 | 12.78° C | 39% | 1011 hPa | 0 mm | - | 264 W/m² | - |
| 1778009310 | 12.78° C | 41% | 1010.8 hPa | 0 mm | - | 288 W/m² | - |
| 1778009008 | 12.78° C | 39% | 1010.9 hPa | 0 mm | - | 241 W/m² | - |
| 1778008705 | 12.78° C | 39% | 1010.9 hPa | 0 mm | - | 213 W/m² | - |
| 1778008402 | 12.78° C | 41% | 1011.1 hPa | 0 mm | - | 197 W/m² | - |
| 1778008092 | 12.22° C | 41% | 1011.2 hPa | 0 mm | - | 188 W/m² | - |
| 1778007811 | 12.22° C | 41% | 1011.3 hPa | 0 mm | - | 204 W/m² | - |
* Rain latest hour (hover to see other rain measurements)
** Current wind speed in m/s (hover to see current wind gust speed)